Kezdőlap
METAR-TAF:

METAR-TAF

Repülőterek :

Albertus Airport

Freeport, Illinois, Amerikai Egyesült Államok

földrajzi szélesség: 42-14-47N, földrajzi hosszúság: 089-34-56W, magasság: 262 m

Jelenlegi meteorológiai megfigyelések

A jelentés 18 perccel ezelõtt készült, 17:35 UTC
Délkeleti szél 4 kt
Hőmérséklet 10°C
Páratartalom 87%
Légköri nyomás 1019 hPa

METAR: KFEP 181735Z AUTO 14004KT 10/08 A3008 RMK AO2 LTG DSNT SW T00970080

Idő: 12:53 (17:53 UTC)


TAF: hiányzik

Meteorológiai megfigyelések és előrejelzések több, mint 4000 repülőtéren (METAR és TAF jelentéseket).

A térképen piros és sárga pontok jelzik az elérhető meteorológiai állomásokat.

Mozgassa az egeret a pont fölött, hogy megjelenjen az állomás neve.

Azután kattintson az időjárási megfigyelések és előrejelzések megtekintéséhez.

A térkép megváltoztatása: kattintson a fekete keresztel jelölt zöld gombra ráközelítéshez, a vonallal jelölt zöld gombra távolításhoz, vagy a zöld nyilakra a szomszédos térképek eléréséhez.


METAR-TAF: